Zurück zum Katalog

STARLINK-4046

AktivKommunikationVLEO
NORAD 52842·PAYLOAD·🇺🇸 United States

Gestartet Jun 17, 2022 von Cape Canaveral Space Force Station

Loading…

Nächste Überflüge (nächste 24 Stunden)

TLE

AktuellSource: CelesTrak SupGP

Epoche: Sep 14, 2026, 14:08 UTC

1 52842C 22062N   26257.58937500 -.00021973  00000+0 -64923-3 0  2579
2 52842  53.1579 255.5580 0001026  80.4702 279.5282 15.34399907    19

Verfolge STARLINK-4046 in Echtzeit mit AllMySat

Download on the App Store